Time,TemperatureF,DewpointF,PressureIn,WindDirection,WindDirectionDegrees,WindSpeedMPH,WindSpeedGustMPH,Humidity,HourlyPrecipIn,Conditions,Clouds,dailyrainin,SolarRadiationWatts/m^2,SoftwareType,DateUTC
2013-03-03 00:21:00,38.0,20.0,-100.00,East,88,14.0,22.0,48,0.00,,,0.00,0.000000,,2013-03-03 08:21:00,
2013-03-03 00:31:00,38.0,20.0,-100.00,East,88,14.0,22.0,48,0.00,,,0.00,0.000000,,2013-03-03 08:31:00,
2013-03-03 00:41:00,38.0,20.0,-100.00,East,88,14.0,22.0,48,0.00,,,0.00,0.000000,,2013-03-03 08:41:00,
2013-03-03 00:51:00,38.0,18.0,-100.00,ENE,63,11.0,24.0,44,0.00,,,0.00,0.000000,,2013-03-03 08:51:00,
2013-03-03 01:21:00,38.0,18.0,-100.00,ENE,63,11.0,24.0,44,0.00,,,0.00,0.000000,,2013-03-03 09:21:00,
2013-03-03 01:32:00,38.0,18.0,-100.00,ENE,63,11.0,24.0,44,0.00,,,0.00,0.000000,,2013-03-03 09:32:00,
2013-03-03 01:41:00,38.0,18.0,-100.00,ENE,63,11.0,24.0,44,0.00,,,0.00,0.000000,,2013-03-03 09:41:00,
2013-03-03 01:51:00,39.0,24.0,-100.00,NW,324,10.0,20.0,54,0.00,,,0.00,0.000000,,2013-03-03 09:51:00,
2013-03-03 02:11:00,39.0,24.0,-100.00,NW,324,10.0,20.0,54,0.00,,,0.00,0.000000,,2013-03-03 10:11:00,
2013-03-03 02:21:00,39.0,24.0,-100.00,NW,324,10.0,20.0,54,0.00,,,0.00,0.000000,,2013-03-03 10:21:00,
2013-03-03 02:32:00,39.0,24.0,-100.00,NW,324,10.0,20.0,54,0.00,,,0.00,0.000000,,2013-03-03 10:32:00,
2013-03-03 02:42:00,39.0,24.0,-100.00,NW,324,10.0,20.0,54,0.00,,,0.00,0.000000,,2013-03-03 10:42:00,
2013-03-03 02:51:00,37.0,21.0,-100.00,SSE,167,6.0,18.0,52,0.00,,,0.00,0.000000,,2013-03-03 10:51:00,
2013-03-03 03:11:00,37.0,21.0,-100.00,SSE,167,6.0,18.0,52,0.00,,,0.00,0.000000,,2013-03-03 11:11:00,
2013-03-03 03:21:00,37.0,21.0,-100.00,SSE,167,6.0,18.0,52,0.00,,,0.00,0.000000,,2013-03-03 11:21:00,
2013-03-03 03:31:00,37.0,21.0,-100.00,SSE,167,6.0,18.0,52,0.00,,,0.00,0.000000,,2013-03-03 11:31:00,
2013-03-03 03:41:00,37.0,21.0,-100.00,SSE,167,6.0,18.0,52,0.00,,,0.00,0.000000,,2013-03-03 11:41:00,
2013-03-03 03:51:00,35.0,21.0,-100.00,NNW,328,7.0,15.0,56,0.00,,,0.00,0.000000,,2013-03-03 11:51:00,
2013-03-03 04:11:00,35.0,21.0,-100.00,NNW,328,7.0,15.0,56,0.00,,,0.00,0.000000,,2013-03-03 12:11:00,
2013-03-03 04:21:00,35.0,21.0,-100.00,NNW,328,7.0,15.0,56,0.00,,,0.00,0.000000,,2013-03-03 12:21:00,
2013-03-03 04:32:00,35.0,21.0,-100.00,NNW,328,7.0,15.0,56,0.00,,,0.00,0.000000,,2013-03-03 12:32:00,
2013-03-03 04:42:00,35.0,21.0,-100.00,NNW,328,7.0,15.0,56,0.00,,,0.00,0.000000,,2013-03-03 12:42:00,
2013-03-03 04:51:00,37.0,24.0,-100.00,ESE,106,12.0,22.0,60,0.00,,,0.00,0.000000,,2013-03-03 12:51:00,
2013-03-03 05:11:00,37.0,24.0,-100.00,ESE,106,12.0,22.0,60,0.00,,,0.00,0.000000,,2013-03-03 13:11:00,
2013-03-03 05:21:00,37.0,24.0,-100.00,ESE,106,12.0,22.0,60,0.00,,,0.00,0.000000,,2013-03-03 13:21:00,
2013-03-03 05:32:00,37.0,24.0,-100.00,ESE,106,12.0,22.0,60,0.00,,,0.00,0.000000,,2013-03-03 13:32:00,
2013-03-03 05:41:00,37.0,24.0,-100.00,ESE,106,12.0,22.0,60,0.00,,,0.00,0.000000,,2013-03-03 13:41:00,
2013-03-03 05:51:00,35.0,23.0,-100.00,NNW,333,10.0,25.0,62,0.00,,,0.00,0.000000,,2013-03-03 13:51:00,
2013-03-03 06:21:00,35.0,23.0,-100.00,NNW,333,10.0,25.0,62,0.00,,,0.00,0.000000,,2013-03-03 14:21:00,
2013-03-03 06:32:00,35.0,23.0,-100.00,NNW,333,10.0,25.0,62,0.00,,,0.00,0.000000,,2013-03-03 14:32:00,
2013-03-03 06:42:00,35.0,23.0,-100.00,NNW,333,10.0,25.0,62,0.00,,,0.00,0.000000,,2013-03-03 14:42:00,
2013-03-03 06:51:00,35.0,21.0,-100.00,NNW,342,9.0,19.0,56,0.00,,,0.00,8.000000,,2013-03-03 14:51:00,
2013-03-03 07:11:00,35.0,21.0,-100.00,NNW,342,9.0,19.0,56,0.00,,,0.00,8.000000,,2013-03-03 15:11:00,
2013-03-03 07:22:00,35.0,21.0,-100.00,NNW,342,9.0,19.0,56,0.00,,,0.00,8.000000,,2013-03-03 15:22:00,
2013-03-03 07:32:00,35.0,21.0,-100.00,NNW,342,9.0,19.0,56,0.00,,,0.00,8.000000,,2013-03-03 15:32:00,
2013-03-03 07:42:00,35.0,21.0,-100.00,NNW,342,9.0,19.0,56,0.00,,,0.00,8.000000,,2013-03-03 15:42:00,
2013-03-03 07:51:00,36.0,25.0,-100.00,ESE,115,8.0,25.0,63,0.00,,,0.00,109.000000,,2013-03-03 15:51:00,
2013-03-03 08:12:00,36.0,25.0,-100.00,ESE,115,8.0,25.0,63,0.00,,,0.00,109.000000,,2013-03-03 16:12:00,
2013-03-03 08:21:00,36.0,25.0,-100.00,ESE,115,8.0,25.0,63,0.00,,,0.00,109.000000,,2013-03-03 16:21:00,
2013-03-03 08:31:00,36.0,25.0,-100.00,ESE,115,8.0,25.0,63,0.00,,,0.00,109.000000,,2013-03-03 16:31:00,
2013-03-03 08:41:00,36.0,25.0,-100.00,ESE,115,8.0,25.0,63,0.00,,,0.00,109.000000,,2013-03-03 16:41:00,
2013-03-03 08:51:00,40.0,32.0,-100.00,ESE,105,3.0,15.0,73,0.00,,,0.00,477.000000,,2013-03-03 16:51:00,
2013-03-03 09:11:00,40.0,32.0,-100.00,ESE,105,3.0,15.0,73,0.00,,,0.00,477.000000,,2013-03-03 17:11:00,
2013-03-03 09:22:00,40.0,32.0,-100.00,ESE,105,3.0,15.0,73,0.00,,,0.00,477.000000,,2013-03-03 17:22:00,
2013-03-03 09:32:00,40.0,32.0,-100.00,ESE,105,3.0,15.0,73,0.00,,,0.00,477.000000,,2013-03-03 17:32:00,
2013-03-03 09:42:00,40.0,32.0,-100.00,ESE,105,3.0,15.0,73,0.00,,,0.00,477.000000,,2013-03-03 17:42:00,
2013-03-03 09:51:00,41.0,29.0,-100.00,NW,308,5.0,12.0,62,0.00,,,0.00,702.000000,,2013-03-03 17:51:00,
2013-03-03 10:21:00,41.0,29.0,-100.00,NW,308,5.0,12.0,62,0.00,,,0.00,702.000000,,2013-03-03 18:21:00,
2013-03-03 10:31:00,41.0,29.0,-100.00,NW,308,5.0,12.0,62,0.00,,,0.00,702.000000,,2013-03-03 18:31:00,
2013-03-03 10:41:00,41.0,29.0,-100.00,NW,308,5.0,12.0,62,0.00,,,0.00,702.000000,,2013-03-03 18:41:00,
2013-03-03 10:51:00,42.0,30.0,-100.00,West,270,1.0,13.0,62,0.00,,,0.00,766.000000,,2013-03-03 18:51:00,
2013-03-03 11:11:00,42.0,30.0,-100.00,West,270,1.0,13.0,62,0.00,,,0.00,766.000000,,2013-03-03 19:11:00,
2013-03-03 11:21:00,42.0,30.0,-100.00,West,270,1.0,13.0,62,0.00,,,0.00,766.000000,,2013-03-03 19:21:00,
2013-03-03 11:31:00,42.0,30.0,-100.00,West,270,1.0,13.0,62,0.00,,,0.00,766.000000,,2013-03-03 19:31:00,
2013-03-03 11:42:00,42.0,30.0,-100.00,West,270,1.0,13.0,62,0.00,,,0.00,766.000000,,2013-03-03 19:42:00,
2013-03-03 11:51:00,42.0,30.0,-100.00,WSW,257,4.0,11.0,63,0.00,,,0.00,771.000000,,2013-03-03 19:51:00,
2013-03-03 12:11:00,42.0,30.0,-100.00,WSW,257,4.0,11.0,63,0.00,,,0.00,771.000000,,2013-03-03 20:11:00,
2013-03-03 12:21:00,42.0,30.0,-100.00,WSW,257,4.0,11.0,63,0.00,,,0.00,771.000000,,2013-03-03 20:21:00,
2013-03-03 12:32:00,42.0,30.0,-100.00,WSW,257,4.0,11.0,63,0.00,,,0.00,771.000000,,2013-03-03 20:32:00,
2013-03-03 12:42:00,42.0,30.0,-100.00,WSW,257,4.0,11.0,63,0.00,,,0.00,771.000000,,2013-03-03 20:42:00,
2013-03-03 12:51:00,41.0,33.0,-100.00,West,272,3.0,12.0,74,0.00,,,0.00,618.000000,,2013-03-03 20:51:00,
2013-03-03 13:11:00,41.0,33.0,-100.00,West,272,3.0,12.0,74,0.00,,,0.00,618.000000,,2013-03-03 21:11:00,
2013-03-03 13:21:00,41.0,33.0,-100.00,West,272,3.0,12.0,74,0.00,,,0.00,618.000000,,2013-03-03 21:21:00,
2013-03-03 13:31:00,41.0,33.0,-100.00,West,272,3.0,12.0,74,0.00,,,0.00,618.000000,,2013-03-03 21:31:00,
2013-03-03 13:41:00,41.0,33.0,-100.00,West,272,3.0,12.0,74,0.00,,,0.00,618.000000,,2013-03-03 21:41:00,
2013-03-03 13:51:00,39.0,31.0,-100.00,NNE,14,4.0,12.0,73,0.00,,,0.00,532.000000,,2013-03-03 21:51:00,
2013-03-03 14:11:00,39.0,31.0,-100.00,NNE,14,4.0,12.0,73,0.00,,,0.00,532.000000,,2013-03-03 22:11:00,
2013-03-03 14:21:00,39.0,31.0,-100.00,NNE,14,4.0,12.0,73,0.00,,,0.00,532.000000,,2013-03-03 22:21:00,
2013-03-03 14:31:00,39.0,31.0,-100.00,NNE,14,4.0,12.0,73,0.00,,,0.00,532.000000,,2013-03-03 22:31:00,
2013-03-03 14:42:00,39.0,31.0,-100.00,NNE,14,4.0,12.0,73,0.00,,,0.00,532.000000,,2013-03-03 22:42:00,
2013-03-03 14:51:00,38.0,34.0,-100.00,West,279,5.0,15.0,86,0.00,,,0.00,369.000000,,2013-03-03 22:51:00,
2013-03-03 15:11:00,38.0,34.0,-100.00,West,279,5.0,15.0,86,0.00,,,0.00,369.000000,,2013-03-03 23:11:00,
2013-03-03 15:21:00,38.0,34.0,-100.00,West,279,5.0,15.0,86,0.00,,,0.00,369.000000,,2013-03-03 23:21:00,
2013-03-03 15:31:00,38.0,34.0,-100.00,West,279,5.0,15.0,86,0.00,,,0.00,369.000000,,2013-03-03 23:31:00,
2013-03-03 15:41:00,38.0,34.0,-100.00,West,279,5.0,15.0,86,0.00,,,0.00,369.000000,,2013-03-03 23:41:00,
2013-03-03 15:51:00,36.0,34.0,-100.00,NNW,334,5.0,15.0,93,0.00,,,0.00,213.000000,,2013-03-03 23:51:00,
2013-03-03 16:11:00,36.0,34.0,-100.00,NNW,334,5.0,15.0,93,0.00,,,0.00,213.000000,,2013-03-04 00:11:00,
2013-03-03 16:21:00,36.0,34.0,-100.00,NNW,334,5.0,15.0,93,0.00,,,0.00,213.000000,,2013-03-04 00:21:00,
2013-03-03 16:32:00,36.0,34.0,-100.00,NNW,334,5.0,15.0,93,0.00,,,0.00,213.000000,,2013-03-04 00:32:00,
2013-03-03 16:41:00,36.0,34.0,-100.00,NNW,334,5.0,15.0,93,0.00,,,0.00,213.000000,,2013-03-04 00:41:00,
2013-03-03 16:51:00,34.0,33.0,-100.00,North,7,8.0,17.0,96,0.00,,,0.00,155.000000,,2013-03-04 00:51:00,
2013-03-03 17:21:00,34.0,33.0,-100.00,North,7,8.0,17.0,96,0.00,,,0.00,155.000000,,2013-03-04 01:21:00,
2013-03-03 17:31:00,34.0,33.0,-100.00,North,7,8.0,17.0,96,0.00,,,0.00,155.000000,,2013-03-04 01:31:00,
2013-03-03 17:42:00,34.0,33.0,-100.00,North,7,8.0,17.0,96,0.00,,,0.00,155.000000,,2013-03-04 01:42:00,
2013-03-03 17:51:00,33.0,33.0,-100.00,West,273,10.0,20.0,100,0.00,,,0.00,35.000000,,2013-03-04 01:51:00,
2013-03-03 18:11:00,33.0,33.0,-100.00,West,273,10.0,20.0,100,0.00,,,0.00,35.000000,,2013-03-04 02:11:00,
2013-03-03 18:22:00,33.0,33.0,-100.00,West,273,10.0,20.0,100,0.00,,,0.00,35.000000,,2013-03-04 02:22:00,
2013-03-03 18:31:00,33.0,33.0,-100.00,West,273,10.0,20.0,100,0.00,,,0.00,35.000000,,2013-03-04 02:31:00,
2013-03-03 18:41:00,33.0,33.0,-100.00,West,273,10.0,20.0,100,0.00,,,0.00,35.000000,,2013-03-04 02:41:00,
2013-03-03 18:51:00,32.0,32.0,-100.00,NW,312,11.0,23.0,100,0.00,,,0.00,0.000000,,2013-03-04 02:51:00,
2013-03-03 19:21:00,32.0,32.0,-100.00,NW,312,11.0,23.0,100,0.00,,,0.00,0.000000,,2013-03-04 03:21:00,
2013-03-03 19:32:00,32.0,32.0,-100.00,NW,312,11.0,23.0,100,0.00,,,0.00,0.000000,,2013-03-04 03:32:00,
2013-03-03 19:41:00,32.0,32.0,-100.00,NW,312,11.0,23.0,100,0.00,,,0.00,0.000000,,2013-03-04 03:41:00,
2013-03-03 19:51:00,32.0,32.0,-100.00,NW,316,11.0,22.0,100,0.00,,,0.00,0.000000,,2013-03-04 03:51:00,
2013-03-03 20:22:00,32.0,32.0,-100.00,NW,316,11.0,22.0,100,0.00,,,0.00,0.000000,,2013-03-04 04:22:00,
2013-03-03 20:32:00,32.0,32.0,-100.00,NW,316,11.0,22.0,100,0.00,,,0.00,0.000000,,2013-03-04 04:32:00,
2013-03-03 20:42:00,32.0,32.0,-100.00,NW,316,11.0,22.0,100,0.00,,,0.00,0.000000,,2013-03-04 04:42:00,
2013-03-03 20:51:00,32.0,32.0,-100.00,NNW,327,11.0,22.0,100,0.00,,,0.00,0.000000,,2013-03-04 04:51:00,
2013-03-03 21:11:00,32.0,32.0,-100.00,NNW,327,11.0,22.0,100,0.00,,,0.00,0.000000,,2013-03-04 05:11:00,
2013-03-03 21:22:00,32.0,32.0,-100.00,NNW,327,11.0,22.0,100,0.00,,,0.00,0.000000,,2013-03-04 05:22:00,
2013-03-03 21:31:00,32.0,32.0,-100.00,NNW,327,11.0,22.0,100,0.00,,,0.00,0.000000,,2013-03-04 05:31:00,
2013-03-03 21:42:00,32.0,32.0,-100.00,NNW,327,11.0,22.0,100,0.00,,,0.00,0.000000,,2013-03-04 05:42:00,
2013-03-03 21:51:00,31.0,31.0,-100.00,NW,310,13.0,24.0,100,0.00,,,0.00,0.000000,,2013-03-04 05:51:00,
2013-03-03 22:11:00,31.0,31.0,-100.00,NW,310,13.0,24.0,100,0.00,,,0.00,0.000000,,2013-03-04 06:11:00,
2013-03-03 22:21:00,31.0,31.0,-100.00,NW,310,13.0,24.0,100,0.00,,,0.00,0.000000,,2013-03-04 06:21:00,
2013-03-03 22:31:00,31.0,31.0,-100.00,NW,310,13.0,24.0,100,0.00,,,0.00,0.000000,,2013-03-04 06:31:00,
2013-03-03 22:42:00,31.0,31.0,-100.00,NW,310,13.0,24.0,100,0.00,,,0.00,0.000000,,2013-03-04 06:42:00,
2013-03-03 22:51:00,31.0,31.0,-100.00,NW,318,12.0,23.0,100,0.00,,,0.00,0.000000,,2013-03-04 06:51:00,
2013-03-03 23:21:00,31.0,31.0,-100.00,NW,318,12.0,23.0,100,0.00,,,0.00,0.000000,,2013-03-04 07:21:00,
2013-03-03 23:32:00,31.0,31.0,-100.00,NW,318,12.0,23.0,100,0.00,,,0.00,0.000000,,2013-03-04 07:32:00,
2013-03-03 23:41:00,31.0,31.0,-100.00,NW,318,12.0,23.0,100,0.00,,,0.00,0.000000,,2013-03-04 07:41:00,
2013-03-03 23:51:00,31.0,31.0,-100.00,SW,221,12.0,22.0,100,0.00,,,0.00,0.000000,,2013-03-04 07:51:00,